Weather History for Casper, WY

Change the Weather History Date:

Monday, October 8, 2012

  Actual Average Record
Temperature  
Mean Temperature 50 °F 48 °F  
Max Temperature 67 °F 63 °F 78 °F (1953)
Min Temperature 32 °F 33 °F 12 °F (1970)
Degree Days  
Heating Degree Days 15 17  
Month to date heating degree days 164 128  
Since 1 July heating degree days 313 413  
Cooling Degree Days 0 0  
Month to date cooling degree days 0 0  
Year to date cooling degree days 697 422  
Growing Degree Days 2 (Base 50)    
Moisture  
Dew Point 18 °F    
Average Humidity 38    
Maximum Humidity 64    
Minimum Humidity 12    
Precipitation  
Precipitation 0.00 in 0.04 in 0.39 in (1995)
Month to date precipitation 0.15 0.32  
Year to date precipitation 6.59 10.48  
Snow  
Snow 0.00 in 0.20 in - ()
Month to date snowfall 2.5 1.6  
Since 1 July snowfall 2.5 3.4  
Since 1 September snowfall 2.5 3.4  
Snow Depth 0.00 in    
Sea Level Pressure  
Sea Level Pressure 29.88 in    
Wind  
Wind Speed 11 mph (West)    
Max Wind Speed 20 mph    
Max Gust Speed 28 mph    
Visibility 10 miles    
Events      
T = Trace of Precipitation, MM = Missing Value Source: NWS Daily Summary

Daily Weather History Graph

Daily Weather History Graph

Search for Another Location

Airport:

Trip Planner

Search our weather history database for the weather conditions in past years. The results will help you decide how hot, cold, wet, or windy it might be!

Date:

Astronomy

Oct. 08, 2012 Rise Set
Actual Time 7:11 AM MDT 6:34 PM MDT
Civil Twilight 6:43 AM MDT 7:02 PM MDT
Nautical Twilight 6:10 AM MDT 7:35 PM MDT
Astronomical Twilight 5:37 AM MDT 8:07 PM MDT
Moon No Moon Rise 2:34 PM MDT (10/8)
Length of Visible Light 12h 18m
Length of Day
11h 22m
Last Quarter, 46% of the Moon is Illuminated
Oct 8
Last Quarter
Oct 15
New
Oct 21
First Quarter
Oct 29
Full
Nov 6
Last Quarter

Hourly Weather History & Observations

Time (MDT) Temp. Windchill Dew Point Humidity Pressure Visibility Wind Dir Wind Speed Gust Speed Precip Events Conditions
12:53 AM 41.0 °F 36.4 °F 14.0 °F 33% 29.95 in 10.0 mi WSW 6.9 mph - N/A   Clear
1:53 AM 41.0 °F 33.9 °F 14.0 °F 33% 29.93 in 10.0 mi SW 12.7 mph - N/A   Clear
2:53 AM 39.0 °F 32.8 °F 12.9 °F 34% 29.93 in 10.0 mi SW 9.2 mph - N/A   Clear
3:53 AM 35.1 °F 27.4 °F 15.1 °F 44% 29.93 in 10.0 mi WSW 10.4 mph - N/A   Clear
4:53 AM 32.0 °F 24.8 °F 15.1 °F 50% 29.93 in 10.0 mi WSW 8.1 mph - N/A   Clear
5:53 AM 37.0 °F 29.8 °F 15.1 °F 41% 29.90 in 10.0 mi SW 10.4 mph - N/A   Clear
6:53 AM 39.0 °F 32.3 °F 14.0 °F 36% 29.95 in 10.0 mi WSW 10.4 mph - N/A   Clear
7:53 AM 41.0 °F 36.4 °F 12.9 °F 32% 29.95 in 10.0 mi WSW 6.9 mph - N/A   Clear
8:53 AM 46.9 °F - 15.1 °F 28% 29.94 in 10.0 mi SSW 15.0 mph 20.7 mph N/A   Clear
9:53 AM 48.9 °F - 15.1 °F 26% 29.93 in 10.0 mi SSW 17.3 mph - N/A   Clear
10:53 AM 53.1 °F - 16.0 °F 23% 29.88 in 10.0 mi SSW 19.6 mph 27.6 mph N/A   Clear
11:53 AM 55.0 °F - 15.1 °F 21% 29.87 in 10.0 mi SW 15.0 mph - N/A   Clear
12:53 PM 60.1 °F - 16.0 °F 18% 29.83 in 10.0 mi SSW 17.3 mph - N/A   Clear
1:33 PM 62.6 °F - 15.8 °F 16% 29.88 in 10.0 mi West 13.8 mph 20.7 mph N/A   Clear
1:53 PM 63.0 °F - 15.1 °F 16% 29.78 in 10.0 mi NW 10.4 mph 23.0 mph N/A   Clear
2:53 PM 63.0 °F - 14.0 °F 15% 29.76 in 10.0 mi WSW 13.8 mph - N/A   Clear
3:53 PM 66.0 °F - 12.9 °F 13% 29.73 in 10.0 mi WNW 10.4 mph - N/A   Clear
4:53 PM 62.1 °F - 14.0 °F 15% 29.75 in 10.0 mi NNW 12.7 mph - N/A   Clear
5:53 PM 54.0 °F - 21.0 °F 28% 29.79 in 10.0 mi NNE 13.8 mph - N/A   Clear
6:53 PM 50.0 °F - 23.0 °F 35% 29.84 in 10.0 mi NNE 8.1 mph - N/A   Clear
7:53 PM 48.2 °F - 24.8 °F 40% 29.90 in 10.0 mi NE 8.1 mph - N/A   Clear
8:53 PM 46.0 °F 41.0 °F 26.1 °F 46% 29.86 in 10.0 mi NNE 10.4 mph - N/A   Clear
9:53 PM 44.1 °F 40.1 °F 27.0 °F 51% 29.88 in 10.0 mi NE 6.9 mph - N/A   Clear
10:53 PM 42.1 °F 39.2 °F 28.0 °F 58% 29.90 in 10.0 mi NNE 4.6 mph - N/A   Clear
11:53 PM 39.0 °F 34.0 °F 28.9 °F 67% 29.92 in 10.0 mi North 6.9 mph - N/A   Clear